星链-32937 (STARLINK-32937)

导读

STARLINK-32937是美国发射的星链卫星,星链是SpaceX打造的低轨卫星互联网星座项目。该星于2025年3月3日发射入轨,归入近地轨道的星链卫星星座组网,旨在补充完善全球卫星互联网通信覆盖能力,为全球更多无网络覆盖、通信基础设施匮乏的区域提供低成本互联网接入服务,进一步扩充星链星座规模。

基本信息
目录编号:
63148
目录名称:
STARLINK-32937
国际标识:
2025-043S
轨道中心:
EARTH
卫星名称:
星链-32937
卫星全名:
星链-32937 (STARLINK-32937)
卫星状态:
在轨 (已飞行468 天)
发射日期:
2025-03-03 UTC
国别 :
美国 (US)
星等 :
--
轨道信息
数据来源 国际轨道数据
星历时间: 2026-06-13T16:29:31+0800
23小时前
查看轨道信息
半长轴: 6861.067km
偏心率: 0.0000952
轨道倾角: 42.998°
近地点辐角 253.777°
升交点赤经 195.910°
平近点角 106.298°
近地点: 482.276km
远地点: 483.584km
周期: 94.264分钟
每日圈数: 15.276199
详细信息
固有亮度:
5
最大亮度:
2.5
卫星平台:
Starlink V1.0
覆盖范围:
全球
运营商:
太空探索技术公司
运营商所在国:
美国
制造商(研发单位):
太空探索技术公司
制造商所在国:
美国
使用方式:
暂无
卫星简介
Starlink 计划是 SpaceX 推出的全球卫星互联网项目,通过发射低轨道卫星,为全球尤其是偏远地区提供高速、低延迟的互联网服务。自 2019 年起,Starlink 已部署数千颗卫星,旨在缩小全球数字鸿沟,推动互联网普及。该项目还为军事、航空等行业提供通信支持,带来广泛经济效益。
2D轨道图
3D轨道图
轨道高度分析图
轨道倾角分析图
轨道综合分析图
查看轨道综合分析图